TimeMST,TemperatureF,Dew PointF,Humidity,Sea Level PressureIn,VisibilityMPH,Wind Direction,Wind SpeedMPH,Gust SpeedMPH,PrecipitationIn,Events,Conditions,WindDirDegrees,DateUTC
12:57 AM,37.0,26.1,65,29.95,10.0,Calm,Calm,-,N/A,,Clear,0,2012-10-07 07:57:00
1:57 AM,36.0,25.0,64,29.96,10.0,Calm,Calm,-,N/A,,Clear,0,2012-10-07 08:57:00
2:57 AM,33.1,24.1,70,29.96,10.0,Calm,Calm,-,N/A,,Clear,0,2012-10-07 09:57:00
3:57 AM,33.1,23.0,66,29.95,10.0,Calm,Calm,-,N/A,,Clear,0,2012-10-07 10:57:00
4:57 AM,33.1,23.0,66,29.97,10.0,Calm,Calm,-,N/A,,Clear,0,2012-10-07 11:57:00
6:57 AM,33.1,24.1,70,30.02,10.0,Calm,Calm,-,N/A,,Clear,0,2012-10-07 13:57:00
7:57 AM,46.9,28.0,48,29.99,10.0,NE,4.6,-,N/A,,Clear,40,2012-10-07 14:57:00
8:57 AM,59.0,27.0,29,30.00,10.0,ENE,4.6,-,N/A,,Clear,70,2012-10-07 15:57:00
9:57 AM,62.1,26.1,25,30.00,10.0,Variable,3.5,-,N/A,,Clear,0,2012-10-07 16:57:00
10:57 AM,63.0,25.0,24,30.00,10.0,Variable,4.6,-,N/A,,Clear,0,2012-10-07 17:57:00
11:57 AM,66.9,24.1,20,29.99,10.0,Variable,6.9,-,N/A,,Clear,0,2012-10-07 18:57:00
12:57 PM,69.1,24.1,18,29.96,10.0,North,6.9,-,N/A,,Clear,360,2012-10-07 19:57:00
1:57 PM,69.1,24.1,18,29.94,10.0,Calm,Calm,-,N/A,,Clear,0,2012-10-07 20:57:00
2:57 PM,70.0,28.0,21,29.94,10.0,WSW,12.7,20.7,N/A,,Scattered Clouds,240,2012-10-07 21:57:00
3:57 PM,68.0,18.0,15,29.95,10.0,East,5.8,-,N/A,,Mostly Cloudy,100,2012-10-07 22:57:00
4:57 PM,66.0,17.1,15,29.97,10.0,East,6.9,-,N/A,,Mostly Cloudy,100,2012-10-07 23:57:00
5:57 PM,62.1,18.0,18,30.00,10.0,East,4.6,-,N/A,,Clear,90,2012-10-08 00:57:00
6:57 PM,53.1,18.0,25,30.05,10.0,East,3.5,-,N/A,,Clear,90,2012-10-08 01:57:00
7:57 PM,48.9,18.0,29,30.03,10.0,Calm,Calm,-,N/A,,Clear,0,2012-10-08 02:57:00
8:57 PM,45.0,18.0,34,30.01,10.0,Calm,Calm,-,N/A,,Clear,0,2012-10-08 03:57:00
9:57 PM,42.1,18.0,38,30.01,10.0,Calm,Calm,-,N/A,,Clear,0,2012-10-08 04:57:00
10:57 PM,39.9,18.0,41,30.01,10.0,Calm,Calm,-,N/A,,Clear,0,2012-10-08 05:57:00
11:57 PM,37.9,19.0,47,30.00,10.0,Calm,Calm,-,N/A,,Clear,0,2012-10-08 06:57:00